This is the latest recevied weather packets stored in our database for station/object VK3BYD-3. If no packets are shown the sender has not sent any weather packets the latest 10 day(s).
| Time | Temp. | Humidity | Pressure | Rain* | Wind** | Luminosity | Snow |
|---|---|---|---|---|---|---|---|
| 1778022235 | 8.33° C | 98% | 1022 hPa | 0 mm | - | - | - |
| 1778021334 | 8.33° C | 98% | 1022 hPa | 0 mm | - | - | - |
| 1778020431 | 7.78° C | 98% | 1022 hPa | 0 mm | - | - | - |
| 1778019529 | 7.78° C | 98% | 1021.9 hPa | 0 mm | - | - | - |
| 1778018629 | 7.22° C | 98% | 1021.7 hPa | 0 mm | - | - | - |
| 1778017730 | 6.67° C | 98% | 1021.7 hPa | 0 mm | - | - | - |
| 1778016830 | 6.67° C | 98% | 1021.5 hPa | 0 mm | - | - | - |
| 1778015927 | 6.67° C | 98% | 1021.4 hPa | 0.25 mm | - | - | - |
| 1778015025 | 6.67° C | 98% | 1021.5 hPa | 0.25 mm | - | - | - |
| 1778014126 | 6.67° C | 98% | 1021.6 hPa | 0.25 mm | - | - | - |
| 1778013223 | 6.67° C | 98% | 1021.5 hPa | 0.25 mm | - | - | - |
| 1778012324 | 6.11° C | 98% | 1021.4 hPa | 0 mm | - | - | - |
| 1778011423 | 6.11° C | 98% | 1021.4 hPa | 0 mm | - | - | - |
| 1778010523 | 6.11° C | 98% | 1021.4 hPa | 0 mm | - | - | - |
| 1778009623 | 5.56° C | 98% | 1021.3 hPa | 0 mm | - | - | - |
| 1778008723 | 5.56° C | 98% | 1021.3 hPa | 0 mm | - | - | - |
| 1778007823 | 5.56° C | 98% | 1021.3 hPa | 0 mm | - | - | - |
| 1778006924 | 5° C | 98% | 1021.3 hPa | 0 mm | - | - | - |
| 1778006020 | 3.89° C | 98% | 1021.2 hPa | 0 mm | - | - | - |
| 1778005119 | 3.89° C | 97% | 1021.1 hPa | 0 mm | - | - | - |
| 1778004219 | 3.89° C | 97% | 1021.1 hPa | 0 mm | - | - | - |
| 1778003317 | 4.44° C | 97% | 1021.1 hPa | 0 mm | - | - | - |
| 1778002417 | 4.44° C | 97% | 1021 hPa | 0 mm | - | - | - |
| 1778001517 | 4.44° C | 97% | 1021.2 hPa | 0 mm | - | - | - |
| 1778000617 | 4.44° C | 97% | 1021.3 hPa | 0 mm | - | - | - |
* Rain latest hour (hover to see other rain measurements)
** Current wind speed in m/s (hover to see current wind gust speed)